Location: Nitra
(0.0000°N, 18.0833°E)
Time: 14:29:15
(UTC+02:00)

N. Korean satellite - Pass Details

Date: 28 April 2021
Orbit: 450 x 501 km, 97.2° (Epoch: 15 May)

Event Time Altitude Azimuth Distance (km) Brightness Sun altitude
Rises 05:47:15 0° 10° (N) 2,457 10.5 -14.0°
Reaches altitude 10° 05:49:17 10° 9° (N) 1,582 9.5 -13.5°
Maximum altitude 05:52:40 85° 283° (WNW) 457 6.3 -12.7°
Drops below altitude 10° 05:56:03 10° 192° (SSW) 1,579 8.9 -11.9°
Sets 05:58:05 0° 192° (SSW) 2,453 9.9 -11.4°
